Weather History for Wildwood, NJ

Change the Weather History Date:

Tuesday, May 21, 2013

  Actual Average Record
Temperature  
Mean Temperature 76 °F -  
Max Temperature 78 °F 67 °F 82 °F (1998)
Min Temperature 75 °F 53 °F 39 °F (2002)
Cooling Degree Days 12    
Growing Degree Days 26 (Base 50)    
Moisture  
Dew Point 67 °F    
Average Humidity 69    
Maximum Humidity 73    
Minimum Humidity 65    
Precipitation  
Precipitation 0.00 in - - ()
Sea Level Pressure  
Sea Level Pressure 29.96 in    
Wind  
Wind Speed 8 mph (SSW)    
Max Wind Speed 13 mph    
Max Gust Speed -    
Averages and records for this station are not official NWS values.
T = Trace of Precipitation, MM = Missing Value Source: NWS Daily Summary

Daily Weather History Graph

Daily Weather History Graph

Search for Another Location

Airport:

Trip Planner

Search our weather history database for the weather conditions in past years. The results will help you decide how hot, cold, wet, or windy it might be!

Date:

Astronomy

May. 21, 2013 Rise Set
Actual Time 5:41 AM EDT 8:11 PM EDT
Civil Twilight 5:11 AM EDT 8:41 PM EDT
Nautical Twilight 4:33 AM EDT 9:19 PM EDT
Astronomical Twilight 3:51 AM EDT 10:02 PM EDT
Moon 4:23 PM EDT (5/21) 3:06 AM EDT (5/21)
Length of Visible Light 15h 30m
Length of Day
14h 29m
Waxing Gibbous, 84% of the Moon is Illuminated
May 21
Waxing Gibbous
May 25
Full
May 31
Last Quarter
Jun 8
New
Jun 16
First Quarter

Hourly Weather History & Observations

Time (EDT) Temp. Dew Point Humidity Pressure Visibility Wind Dir Wind Speed Gust Speed Precip Events Conditions
12:15 AM - - N/A% 29.99 in - South 5.8 mph - N/A   Unknown
12:35 AM - - N/A% 29.99 in - SSW 6.9 mph - N/A   Unknown
12:55 AM - - N/A% 29.99 in - SSW 6.9 mph - N/A   Unknown
1:15 AM - - N/A% 29.98 in - SSW 6.9 mph - N/A   Unknown
1:35 AM - - N/A% 29.97 in - SSW 8.1 mph - N/A   Unknown
1:55 AM - - N/A% 29.97 in - SSW 8.1 mph - N/A   Unknown
2:15 AM - - N/A% 29.97 in - SSW 9.2 mph - N/A   Unknown
2:35 AM - - N/A% 29.97 in - SSW 9.2 mph - N/A   Unknown
2:55 AM - - N/A% 29.97 in - SSW 8.1 mph - N/A   Unknown
3:15 AM - - N/A% 29.96 in - SSW 8.1 mph - N/A   Unknown
3:35 AM - - N/A% 29.96 in - SSW 6.9 mph - N/A   Unknown
3:55 AM - - N/A% 29.95 in - South 6.9 mph - N/A   Unknown
4:15 AM - - N/A% 29.95 in - SSW 6.9 mph - N/A   Unknown
4:35 AM - - N/A% 29.95 in - SSW 5.8 mph - N/A   Unknown
4:55 AM - - N/A% 29.96 in - SSW 5.8 mph - N/A   Unknown
5:15 AM - - N/A% 29.96 in - SSW 6.9 mph - N/A   Unknown
5:35 AM - - N/A% 29.97 in - SSW 4.6 mph - N/A   Unknown
5:55 AM - - N/A% 29.98 in - SSW 5.8 mph - N/A   Unknown
6:15 AM - - N/A% 29.99 in - SW 8.1 mph - N/A   Overcast
6:35 AM - - N/A% 29.99 in - SSW 11.5 mph - N/A   Overcast
6:55 AM - - N/A% 29.99 in - SW 10.4 mph - N/A   Overcast
7:15 AM - - N/A% 30.00 in - WSW 8.1 mph - N/A   Overcast
7:35 AM - - N/A% 30.01 in - SW 8.1 mph - N/A   Overcast
7:55 AM - - N/A% 30.01 in - SW 8.1 mph - N/A   Overcast
8:15 AM - - N/A% 30.01 in - SW 10.4 mph - N/A   Overcast
8:35 AM - - N/A% 30.01 in - SW 11.5 mph - N/A   Overcast
8:55 AM - - N/A% 30.01 in - SW 11.5 mph - N/A   Mostly Cloudy
9:15 AM - - N/A% 30.01 in - WSW 8.1 mph - N/A   Overcast
9:35 AM - - N/A% 30.01 in - WSW 10.4 mph - N/A   Overcast
9:55 AM - - N/A% 30.01 in - WSW 11.5 mph - N/A   Overcast
10:15 AM - - N/A% 30.00 in - WSW 8.1 mph - N/A   Overcast
10:35 AM - - N/A% 30.00 in - WSW 9.2 mph - N/A   Overcast
10:55 AM - - N/A% 29.99 in - SW 9.2 mph - N/A   Overcast
11:15 AM - - N/A% 29.99 in - SW 10.4 mph - N/A   Mostly Cloudy
11:35 AM 75.2 °F 66.2 °F 73% 30.00 in - SW 11.5 mph - N/A   Overcast
11:55 AM 75.2 °F 66.2 °F 73% 29.99 in - SW 8.1 mph - N/A   Mostly Cloudy
12:15 PM - - N/A% 29.99 in - WSW 12.7 mph - N/A   Mostly Cloudy
12:35 PM 77.0 °F 66.2 °F 69% 29.99 in - SSW 11.5 mph - N/A   Scattered Clouds
12:55 PM 78.8 °F 68.0 °F 69% 29.99 in - SSW 9.2 mph - N/A   Mostly Cloudy
1:15 PM 78.8 °F 68.0 °F 69% 29.98 in - South 9.2 mph - N/A   Partly Cloudy
1:35 PM 77.0 °F 66.2 °F 69% 29.99 in - SSE 8.1 mph - N/A   Clear
1:55 PM 77.0 °F 66.2 °F 69% 29.98 in - South 8.1 mph - N/A   Clear
2:15 PM 77.0 °F 66.2 °F 69% 29.98 in - SSE 8.1 mph - N/A   Clear
2:35 PM - - N/A% 29.97 in - SSE 10.4 mph - N/A   Unknown
2:55 PM - - N/A% 29.97 in - South 9.2 mph - N/A   Unknown
3:15 PM - - N/A% 29.97 in - South 11.5 mph - N/A   Unknown
3:35 PM - - N/A% 29.95 in - SSE 12.7 mph - N/A   Unknown
3:55 PM - - N/A% 29.95 in - South 11.5 mph - N/A   Unknown
4:15 PM - - N/A% 29.95 in - South 11.5 mph - N/A   Unknown
4:35 PM 78.8 °F 66.2 °F 65% 29.94 in - South 12.7 mph - N/A   Clear
4:55 PM 78.8 °F 66.2 °F 65% 29.95 in - South 9.2 mph - N/A   Clear
5:15 PM 78.8 °F 66.2 °F 65% 29.94 in - South 11.5 mph - N/A   Clear
5:35 PM - - N/A% 29.93 in - South 11.5 mph - N/A   Unknown
5:55 PM - - N/A% 29.92 in - South 12.7 mph - N/A   Unknown
6:15 PM - - N/A% 29.92 in - South 10.4 mph - N/A   Unknown
6:35 PM - - N/A% 29.92 in - SSW 11.5 mph - N/A   Unknown
6:55 PM - - N/A% 29.92 in - South 9.2 mph - N/A   Unknown
7:15 PM - - N/A% 29.92 in - South 10.4 mph - N/A   Unknown
7:35 PM - - N/A% 29.91 in - South 9.2 mph - N/A   Unknown
7:55 PM - - N/A% 29.91 in - South 9.2 mph - N/A   Unknown
8:15 PM - - N/A% 29.91 in - South 10.4 mph - N/A   Unknown
8:35 PM - - N/A% 29.92 in - SSW 10.4 mph - N/A   Unknown
8:55 PM - - N/A% 29.91 in - South 8.1 mph - N/A   Unknown
9:15 PM - - N/A% 29.91 in - SSW 10.4 mph - N/A   Unknown
9:35 PM - - N/A% 29.91 in - South 10.4 mph - N/A   Unknown
9:55 PM - - N/A% 29.92 in - SSW 10.4 mph - N/A   Unknown
10:15 PM - - N/A% 29.91 in - South 9.2 mph - N/A   Unknown
10:35 PM - - N/A% 29.91 in - SSW 8.1 mph - N/A   Unknown
10:55 PM - - N/A% 29.91 in - SSW 6.9 mph - N/A   Unknown
11:15 PM - - N/A% 29.90 in - South 8.1 mph - N/A   Unknown
11:35 PM - - N/A% 29.90 in - South 6.9 mph - N/A   Unknown
11:55 PM - - N/A% 29.90 in - South 6.9 mph - N/A   Unknown